This is the latest recevied weather packets stored in our database for station/object SV9TNF-57. If no packets are shown the sender has not sent any weather packets the latest 10 day(s).
| Time | Temp. | Humidity | Pressure | Rain* | Wind** | Luminosity | Snow |
|---|---|---|---|---|---|---|---|
| 1788501273 | 27.78° C | 51% | 994 hPa | 0 mm | 8.49 m/s, 321° | - | - |
| 1788500974 | 27.78° C | 53% | 993.9 hPa | 0 mm | 5.36 m/s, 299° | - | - |
| 1788500673 | 27.78° C | 53% | 994 hPa | 0 mm | 0 m/s | - | - |
| 1788500373 | 27.78° C | 54% | 994 hPa | 0 mm | 6.71 m/s, 256° | - | - |
| 1788500073 | 27.22° C | 54% | 993.9 hPa | 0 mm | 8.49 m/s, 348° | - | - |
| 1788499773 | 27.22° C | 55% | 993.9 hPa | 0 mm | 4.02 m/s, 334° | - | - |
| 1788499473 | 27.22° C | 56% | 994 hPa | 0 mm | 2.68 m/s, 236° | - | - |
| 1788499173 | 27.22° C | 55% | 994 hPa | 0 mm | 3.58 m/s, 315° | - | - |
| 1788498872 | 26.67° C | 56% | 993.8 hPa | 0 mm | 3.58 m/s, 302° | - | - |
| 1788498572 | 26.67° C | 55% | 994 hPa | 0 mm | 0.45 m/s, 26° | - | - |
| 1788498272 | 26.67° C | 56% | 994 hPa | 0 mm | 1.34 m/s, 320° | - | - |
| 1788497972 | 26.67° C | 56% | 993.9 hPa | 0 mm | 2.24 m/s, 311° | - | - |
| 1788497672 | 26.11° C | 56% | 993.8 hPa | 0 mm | 3.58 m/s, 8° | - | - |
| 1788497373 | 26.11° C | 56% | 993.8 hPa | 0 mm | 5.36 m/s, 313° | - | - |
| 1788497072 | 25.56° C | 56% | 993.8 hPa | 0 mm | 2.68 m/s, 287° | - | - |
| 1788496772 | 25.56° C | 55% | 993.7 hPa | 0 mm | 0.89 m/s, 298° | - | - |
| 1788496472 | 26.11° C | 53% | 993.5 hPa | 0 mm | 6.26 m/s, 290° | - | - |
| 1788496171 | 26.11° C | 52% | 993.6 hPa | 0 mm | 6.26 m/s, 1° | - | - |
| 1788495872 | 26.11° C | 52% | 993.5 hPa | 0 mm | 7.6 m/s, 312° | - | - |
| 1788495571 | 26.11° C | 51% | 993.7 hPa | 0 mm | 8.05 m/s, 318° | - | - |
| 1788495272 | 26.11° C | 51% | 993.6 hPa | 0 mm | 9.39 m/s, 335° | - | - |
| 1788494971 | 26.11° C | 51% | 993.4 hPa | 0 mm | 4.92 m/s, 297° | - | - |
| 1788494671 | 25.56° C | 51% | 993.6 hPa | 0 mm | 6.71 m/s, 318° | - | - |
| 1788494371 | 25.56° C | 52% | 993.4 hPa | 0 mm | 6.26 m/s, 336° | - | - |
| 1788494071 | 25.56° C | 53% | 993.5 hPa | 0 mm | 4.92 m/s, 320° | - | - |
* Rain latest hour (hover to see other rain measurements)
** Current wind speed in m/s (hover to see current wind gust speed)